TIANWANG 1C (TW-1C) (40926 NORAD) Tracking and Keplerian Element Data

This shows tracking and keplerian element data for the satellite.

Feedback or suggestion? Click here.




ElementValue
Catalog40926
NameTIANWANG 1C (TW-1C)
Epoch Orbit28653
Epoch Day293.92089794
Epoch Year2020
RAAN346.8822
Inclination97.0677
Eccentricity0.0003299
Argument of Perigee359.9525
Mean Anonmoly173.1764
Mean Motion15.72247518
Decay Rate0.00038186
L11 40926U 15051B 20293.92089794 .00038186 00000-0 28983-3 0 9996
L22 40926 97.0677 346.8822 0003299 359.9525 173.1764 15.72247518286538

Live tracking and technical data element details for TIANWANG 1C (TW-1C) (NORAD 40926). TIANWANG 1C (TW-1C) can be tracked NOW for your location showing map with azimuth and elevation plus other details from your city location.

Track the satellite on the map from your city or location and see movement details for azimuth, elevation, latitude, longitude, range, height, and movement on the map or in text.







IsCatalogInMostPopularTable: catalog: 40926, numindb: 396
Update: records affected: 1



GetName: 40926 TIANWANG 1C (TW-1C)

Hit Count: updated at: Tue, 20 Oct 2020 16:59:34 GMT